EW6780 Weather Reports


time (UTC)temp
C
wind
direction
speed
KPH
gust
KPH
rain 1hr
cm
rain 24hr
cm
rain mn
cm
humidity
%
barometer
mb
20260505153007 25 153 0.0 6.4 0.00 0.03 0.00 47 1010.2
20260505152510 25 286 0.0 6.4 0.00 0.03 0.00 48 1010.1
20260505152007 24 210 0.0 4.8 0.00 0.03 0.00 48 1010.1
20260505151504 24 293 0.0 9.7 0.00 0.03 0.00 49 1010.2
20260505151005 24 235 3.2 8.0 0.00 0.03 0.00 49 1010.5
20260505150507 23 274 1.6 11.3 0.00 0.03 0.00 48 1010.5
20260505140504 21 158 3.2 8.0 0.00 0.03 0.00 55 1010.9
20260505125010 19 164 1.6 11.3 0.00 0.03 0.00 59 1010.6
20260505124504 19 113 1.6 8.0 0.00 0.03 0.00 61 1010.7
20260505124010 19 289 8.0 8.0 0.00 0.03 0.00 60 1010.6
20260505123510 19 296 0.0 8.0 0.00 0.03 0.00 61 1010.6
20260505123007 19 247 0.0 6.4 0.00 0.03 0.00 61 1010.5
20260505122507 18 289 1.6 11.3 0.00 0.03 0.00 62 1010.6
20260505122007 18 125 0.0 14.5 0.00 0.03 0.00 63 1010.7
20260505121505 18 106 11.3 14.5 0.00 0.03 0.00 63 1010.8
20260505121004 18 139 6.4 8.0 0.00 0.03 0.00 65 1010.8
20260505120504 17 175 3.2 6.4 0.00 0.03 0.00 67 1010.7
20260505120005 17 257 1.6 9.7 0.00 0.03 0.00 67 1010.7
20260505115508 17 300 3.2 8.0 0.00 0.03 0.00 69 1010.7
20260505115004 16 208 0.0 6.4 0.00 0.03 0.00 70 1010.8
20260505114507 16 262 1.6 4.8 0.00 0.03 0.00 71 1010.7
20260505114004 16 116 0.0 8.0 0.00 0.03 0.00 72 1010.8
20260505113510 16 241 4.8 8.0 0.00 0.03 0.00 73 1010.9
20260505113010 15 228 0.0 0.0 0.00 0.03 0.00 74 1010.9
20260505112514 15 294 0.0 4.8 0.00 0.03 0.00 75 1010.9
20260505112004 15 292 0.0 0.0 0.00 0.03 0.00 75 1010.8
20260505111504 15 301 0.0 4.8 0.00 0.03 0.00 76 1010.9
20260505111010 15 304 0.0 3.2 0.00 0.03 0.00 77 1010.9
20260505110507 14 308 0.0 0.0 0.00 0.03 0.00 77 1010.7
20260505102004 12 304 0.0 0.0 0.00 0.03 0.00 83 1010.6
20260505101507 12 304 0.0 0.0 0.00 0.03 0.00 83 1010.6
20260505101007 12 304 0.0 0.0 0.00 0.03 0.00 82 1010.5
20260505100508 12 301 0.0 0.0 0.00 0.03 0.00 82 1010.6
20260505100008 12 301 0.0 0.0 0.00 0.03 0.00 81 1010.6
20260505095507 12 301 0.0 0.0 0.00 0.03 0.00 81 1010.5
20260505095004 13 301 0.0 0.0 0.00 0.03 0.00 80 1010.0
20260505094510 13 301 0.0 0.0 0.00 0.03 0.00 80 1010.0
20260505094007 13 301 0.0 0.0 0.00 0.03 0.00 80 1009.9
20260505093504 13 301 0.0 0.0 0.00 0.03 0.00 81 1009.9
20260505093004 13 301 0.0 0.0 0.00 0.03 0.00 81 1009.6
20260505092504 13 301 0.0 0.0 0.00 0.03 0.00 81 1009.7
20260505092013 13 301 0.0 0.0 0.00 0.03 0.00 82 1009.8
20260505091507 12 301 0.0 0.0 0.00 0.03 0.00 82 1009.7
20260505091007 12 301 0.0 0.0 0.00 0.03 0.00 83 1009.8
20260505090504 12 301 0.0 3.2 0.00 0.03 0.00 83 1009.8
20260505090004 12 233 0.0 0.0 0.00 0.03 0.00 83 1009.9
20260505085507 12 233 0.0 0.0 0.00 0.03 0.00 82 1009.8
20260505085004 12 233 0.0 0.0 0.00 0.03 0.00 82 1009.9
20260505084507 12 233 0.0 0.0 0.00 0.03 0.00 82 1009.9
20260505084004 12 233 0.0 0.0 0.00 0.03 0.00 82 1009.9
20260505083504 12 233 0.0 0.0 0.00 0.03 0.00 82 1010.0
20260505083007 12 233 0.0 0.0 0.00 0.03 0.00 82 1009.9
20260505082504 12 233 0.0 0.0 0.00 0.03 0.00 81 1009.9
20260505082004 12 233 0.0 0.0 0.00 0.03 0.00 81 1009.8
20260505081508 12 233 0.0 0.0 0.00 0.03 0.00 81 1009.8
20260505081005 12 233 0.0 0.0 0.00 0.03 0.00 81 1009.8
20260505080513 12 233 0.0 0.0 0.00 0.03 0.00 81 1009.8
20260505080004 12 233 0.0 0.0 0.00 0.03 0.00 81 1009.8
20260505075505 11 233 0.0 0.0 0.00 0.03 0.00 81 1009.9
20260505075008 11 233 0.0 0.0 0.00 0.03 0.00 81 1009.9
20260505074507 11 233 0.0 0.0 0.00 0.03 0.00 80 1010.0
20260505074004 12 233 0.0 0.0 0.00 0.03 0.00 80 1009.9
20260505073504 12 233 0.0 0.0 0.00 0.03 0.00 79 1009.8
20260505073004 12 233 0.0 0.0 0.00 0.03 0.00 79 1009.8
20260505072504 12 233 0.0 0.0 0.00 0.03 0.00 79 1009.8
20260505072004 12 233 0.0 0.0 0.00 0.03 0.00 79 1009.9
20260505071504 12 233 0.0 0.0 0.00 0.03 0.00 78 1009.9
20260505071004 12 233 0.0 0.0 0.00 0.03 0.00 77 1009.9
20260505070505 12 233 0.0 0.0 0.00 0.03 0.00 77 1009.8
20260505070005 12 233 0.0 0.0 0.00 0.03 0.00 77 1009.8
20260505065507 12 233 0.0 0.0 0.00 0.03 0.00 76 1009.8
20260505065007 12 233 0.0 0.0 0.00 0.03 0.00 76 1009.8
20260505064507 12 233 0.0 0.0 0.00 0.03 0.00 75 1009.8
20260505064004 12 233 0.0 0.0 0.00 0.03 0.00 75 1009.9
20260505063504 12 233 0.0 0.0 0.00 0.03 0.00 74 1009.8
20260505063004 13 233 0.0 0.0 0.00 0.03 0.00 73 1009.8
20260505062507 13 233 0.0 0.0 0.00 0.03 0.00 73 1009.9
20260505062004 13 233 0.0 0.0 0.00 0.03 0.00 72 1010.0
20260505061510 13 233 0.0 0.0 0.00 0.03 0.00 71 1010.0
20260505061010 13 233 0.0 0.0 0.00 0.03 0.00 71 1010.0
20260505060504 13 233 0.0 0.0 0.00 0.03 0.00 71 1010.0
20260505060007 13 233 0.0 0.0 0.00 0.03 0.00 70 1010.0
20260505055504 13 233 0.0 0.0 0.00 0.03 0.00 70 1010.0
20260505055004 13 233 0.0 0.0 0.00 0.03 0.00 70 1010.0
20260505054505 14 233 0.0 0.0 0.00 0.03 0.00 69 1010.0
20260505054004 14 233 0.0 0.0 0.00 0.03 0.00 69 1010.0
20260505053507 14 233 0.0 0.0 0.00 0.03 0.00 69 1009.9
20260505053008 14 233 0.0 0.0 0.00 0.03 0.00 69 1010.0
20260505052504 14 233 0.0 0.0 0.00 0.03 0.00 68 1010.1
20260505052010 14 233 0.0 0.0 0.00 0.03 0.00 68 1010.1
20260505051507 14 233 0.0 0.0 0.00 0.03 0.00 67 1010.2
20260505051004 14 233 0.0 0.0 0.00 0.03 0.00 67 1010.2
20260505050507 15 234 0.0 0.0 0.00 0.03 0.00 66 1010.2
20260505041511 16 235 0.0 0.0 0.00 0.03 0.00 62 1010.4
20260505041007 16 179 0.0 0.0 0.00 0.03 0.00 62 1010.4
20260505040504 16 179 0.0 1.6 0.00 0.03 0.00 61 1010.4
20260505040005 16 158 0.0 0.0 0.00 0.03 0.00 61 1010.5
20260505035507 16 161 0.0 0.0 0.00 0.03 0.00 60 1010.4
20260505035005 16 133 0.0 0.0 0.00 0.03 0.00 60 1010.5
20260505034510 16 133 0.0 0.0 0.00 0.03 0.00 60 1010.5
20260505034005 16 133 0.0 0.0 0.00 0.03 0.00 60 1010.5
20260505033507 16 133 0.0 0.0 0.00 0.03 0.00 59 1010.5
20260505033004 16 129 0.0 0.0 0.00 0.03 0.00 59 1010.5
20260505032504 16 129 0.0 0.0 0.00 0.03 0.00 58 1010.6
20260505032007 16 129 0.0 0.0 0.00 0.03 0.00 58 1010.7
20260505031504 16 129 0.0 0.0 0.00 0.03 0.00 58 1010.7
20260505031004 16 129 0.0 1.6 0.00 0.03 0.00 57 1010.7
20260505030510 16 125 0.0 0.0 0.00 0.03 0.00 57 1010.8
20260505030010 16 125 0.0 0.0 0.00 0.03 0.00 56 1010.8
20260505025507 17 124 0.0 0.0 0.00 0.03 0.00 56 1010.7
20260505025004 17 124 0.0 0.0 0.00 0.03 0.00 56 1010.6
20260505024504 17 124 0.0 1.6 0.00 0.03 0.00 55 1010.8
20260505024007 17 136 0.0 0.0 0.00 0.03 0.00 55 1010.8
20260505023510 17 136 0.0 1.6 0.00 0.03 0.00 54 1010.8
20260505023007 17 148 0.0 1.6 0.00 0.03 0.00 54 1010.8
20260505022507 17 128 0.0 1.6 0.00 0.03 0.00 53 1010.8
20260505022005 17 127 0.0 4.8 0.00 0.03 0.00 53 1010.8
20260505021513 17 118 0.0 9.7 0.00 0.03 0.00 53 1010.9
20260505021004 17 129 0.0 9.7 0.00 0.03 0.00 52 1011.0
20260505020510 17 133 0.0 0.0 0.00 0.03 0.00 52 1010.8
20260505020004 18 133 0.0 3.2 0.00 0.03 0.00 51 1010.7
20260505015507 18 141 0.0 9.7 0.00 0.03 0.00 51 1010.7
20260505015004 18 129 1.6 1.6 0.00 0.03 0.00 50 1010.7
20260505014507 18 150 0.0 4.8 0.00 0.03 0.00 49 1010.7
20260505014010 18 121 0.0 9.7 0.00 0.03 0.00 47 1010.6
20260505013510 18 127 1.6 12.9 0.00 0.03 0.00 46 1010.6
20260505013004 18 98 0.0 3.2 0.00 0.03 0.00 44 1010.5
20260505012507 18 137 0.0 0.0 0.00 0.03 0.00 43 1010.5
20260505012004 18 137 0.0 0.0 0.00 0.03 0.00 43 1010.3
20260505011505 18 137 0.0 0.0 0.00 0.05 0.00 42 1010.2
20260505011004 19 137 0.0 0.0 0.00 0.05 0.00 42 1010.1
20260505010507 19 137 0.0 0.0 0.00 0.05 0.00 42 1010.1
20260505010008 19 136 0.0 0.0 0.00 0.05 0.00 41 1010.0
20260505005504 19 136 0.0 0.0 0.00 0.05 0.00 41 1009.9
20260505005007 19 136 0.0 0.0 0.00 0.05 0.00 41 1009.8
20260505004510 20 136 0.0 0.0 0.00 0.05 0.00 40 1009.8
20260505004004 20 136 0.0 0.0 0.00 0.05 0.00 40 1009.8
20260505003504 20 134 0.0 1.6 0.00 0.05 0.00 39 1009.8
20260505003004 20 161 0.0 1.6 0.00 0.05 0.00 39 1009.7
20260505002504 20 220 0.0 1.6 0.00 0.05 0.00 39 1009.6
20260505002007 20 179 1.6 3.2 0.00 0.05 0.00 39 1009.5
20260505001505 20 231 0.0 3.2 0.00 0.05 0.00 38 1009.5
20260505001004 20 123 0.0 3.2 0.00 0.05 0.00 38 1009.4
20260505000507 20 118 0.0 9.7 0.00 0.05 0.00 37 1009.3
20260505000005 21 183 0.0 6.4 0.00 0.05 0.00 37 1009.3
20260504235510 21 269 0.0 9.7 0.00 0.05 0.00 37 1009.2
20260504235004 21 161 0.0 3.2 0.00 0.05 0.00 37 1009.2
20260504234507 21 196 0.0 6.4 0.00 0.05 0.00 37 1009.1
20260504234011 21 303 1.6 6.4 0.00 0.05 0.00 36 1009.0
20260504233505 21 284 4.8 4.8 0.00 0.05 0.00 36 1008.9
20260504233004 21 270 0.0 4.8 0.00 0.05 0.00 35 1008.9
20260504232510 21 289 1.6 6.4 0.00 0.05 0.00 35 1008.9
20260504232004 21 164 0.0 3.2 0.00 0.05 0.00 36 1008.8
20260504231504 21 256 0.0 6.4 0.00 0.05 0.00 35 1008.7
20260504231004 21 199 0.0 4.8 0.00 0.05 0.00 35 1008.7
20260504230504 22 293 0.0 6.4 0.00 0.05 0.00 35 1008.6
20260504230005 22 302 1.6 3.2 0.00 0.05 0.00 35 1008.6
20260504225508 22 301 0.0 3.2 0.00 0.05 0.00 35 1008.6
20260504225010 22 175 0.0 9.7 0.00 0.05 0.00 35 1008.7
20260504224504 22 95 0.0 3.2 0.00 0.05 0.00 34 1008.6
20260504224007 22 303 3.2 9.7 0.00 0.05 0.00 34 1008.7
20260504223504 22 259 0.0 4.8 0.00 0.05 0.00 34 1008.7
20260504223004 22 127 1.6 9.7 0.00 0.05 0.00 33 1008.7
20260504222504 22 295 1.6 4.8 0.00 0.05 0.00 34 1008.7
20260504222008 22 142 0.0 4.8 0.00 0.05 0.00 34 1008.7
20260504221510 22 214 0.0 3.2 0.00 0.05 0.00 34 1008.8
20260504221004 22 129 0.0 9.7 0.00 0.05 0.00 33 1008.8
20260504220504 22 136 3.2 3.2 0.00 0.05 0.00 34 1008.8
20260504220007 22 204 0.0 9.7 0.00 0.05 0.00 34 1008.9
20260504215504 22 308 3.2 6.4 0.00 0.05 0.00 34 1008.9
20260504215004 22 252 1.6 11.3 0.00 0.05 0.00 33 1009.0
20260504214507 22 314 0.0 6.4 0.00 0.05 0.00 33 1009.0
20260504214004 22 290 0.0 9.7 0.00 0.05 0.00 34 1009.0
20260504213504 22 303 1.6 8.0 0.00 0.05 0.00 33 1009.0
20260504213004 22 288 4.8 6.4 0.00 0.05 0.00 33 1009.0
20260504212507 22 172 4.8 12.9 0.00 0.05 0.00 33 1009.1
20260504212010 22 261 1.6 8.0 0.00 0.05 0.00 33 1009.1
20260504211504 22 126 0.0 9.7 0.00 0.05 0.00 33 1009.1
20260504211005 22 286 0.0 8.0 0.00 0.05 0.00 32 1009.2
20260504210514 22 287 4.8 4.8 0.00 0.05 0.00 33 1009.1
20260504210008 22 288 0.0 6.4 0.00 0.05 0.00 33 1009.1
20260504205510 22 281 0.0 4.8 0.00 0.05 0.00 33 1009.1
20260504205010 22 289 0.0 11.3 0.00 0.05 0.00 32 1009.1
20260504204507 22 249 11.3 11.3 0.00 0.05 0.00 33 1009.0
20260504204007 22 174 1.6 9.7 0.00 0.05 0.00 32 1009.1
20260504203508 22 249 0.0 11.3 0.00 0.05 0.00 32 1009.1
20260504203004 23 297 1.6 12.9 0.00 0.05 0.00 33 1009.1
20260504202510 23 288 3.2 14.5 0.00 0.05 0.00 33 1009.1
20260504202005 23 265 3.2 12.9 0.00 0.05 0.00 32 1009.2
20260504201507 22 294 8.0 8.0 0.00 0.05 0.00 33 1009.1
20260504201007 22 292 1.6 16.1 0.00 0.05 0.00 32 1009.2
20260504200507 22 249 0.0 14.5 0.00 0.05 0.00 32 1009.2
20260504200004 22 114 1.6 9.7 0.00 0.05 0.00 33 1009.3
20260504195510 23 306 0.0 11.3 0.00 0.05 0.00 33 1009.3
20260504195007 23 253 0.0 14.5 0.00 0.05 0.00 32 1009.4
20260504194504 22 151 0.0 3.2 0.00 0.05 0.00 34 1009.3
20260504194005 22 190 4.8 9.7 0.00 0.05 0.00 33 1009.4
20260504193514 22 271 3.2 16.1 0.00 0.05 0.00 33 1009.5
20260504193004 22 29 4.8 11.3 0.00 0.05 0.00 33 1009.5
20260504192504 22 288 4.8 8.0 0.00 0.05 0.00 34 1009.6
20260504192011 22 279 0.0 9.7 0.00 0.05 0.00 33 1009.6
20260504191510 22 276 9.7 9.7 0.00 0.05 0.00 33 1009.7
20260504191013 22 293 6.4 6.4 0.00 0.05 0.00 34 1009.8
20260504190505 22 182 1.6 12.9 0.00 0.05 0.00 34 1009.9
20260504190008 22 130 0.0 9.7 0.00 0.05 0.00 33 1009.9
20260504185505 22 249 1.6 8.0 0.00 0.05 0.00 33 1009.9
20260504185004 22 291 4.8 12.9 0.00 0.05 0.00 33 1010.1
20260504184504 22 245 1.6 11.3 0.00 0.05 0.00 34 1010.1
20260504184008 22 291 3.2 9.7 0.00 0.05 0.00 34 1010.1
20260504183504 22 234 4.8 14.5 0.00 0.05 0.00 33 1010.2
20260504183004 22 293 1.6 11.3 0.00 0.05 0.00 34 1010.3
20260504182513 22 293 0.0 14.5 0.00 0.05 0.00 34 1010.3
20260504182004 22 314 0.0 9.7 0.00 0.05 0.00 34 1010.5
20260504181504 22 201 0.0 17.7 0.00 0.05 0.00 34 1010.4
20260504181004 22 179 1.6 4.8 0.00 0.05 0.00 34 1010.6
20260504180507 21 291 0.0 17.7 0.00 0.05 0.00 34 1010.7
20260504180004 21 87 1.6 14.5 0.00 0.05 0.00 35 1010.8
20260504175507 21 164 0.0 12.9 0.00 0.05 0.00 35 1010.7
20260504175004 21 267 3.2 14.5 0.00 0.05 0.00 35 1010.9
20260504174504 21 299 1.6 8.0 0.00 0.05 0.00 34 1011.0
20260504174004 21 304 8.0 17.7 0.00 0.05 0.00 34 1011.0
20260504173511 21 237 1.6 8.0 0.00 0.05 0.00 37 1011.0
20260504173004 21 280 1.6 12.9 0.00 0.05 0.00 35 1011.1
20260504172508 21 108 1.6 9.7 0.00 0.05 0.00 36 1011.0
20260504172007 21 229 3.2 16.1 0.00 0.05 0.00 36 1011.1
20260504171507 21 205 1.6 11.3 0.00 0.05 0.00 35 1011.2
20260504171004 20 277 0.0 11.3 0.00 0.05 0.00 36 1011.3
20260504170510 20 201 1.6 12.9 0.00 0.05 0.00 36 1011.4